| time (UTC) | temp F | wind direction | speed MPH | gust MPH | rain 1hr in | rain 24hr in | rain mn in | humidity % | barometer mb |
| 20260905131058 | 59 | 112 | 2.0 | 6.0 | 0.00 | 0.00 | 0.00 | 83 | 1001.3 |
| 20260905130033 | 58 | 135 | 1.0 | 3.0 | 0.00 | 0.00 | 0.00 | 85 | 1001.2 |
| 20260905125029 | 58 | 113 | 2.0 | 6.0 | 0.00 | 0.00 | 0.00 | 85 | 1001.1 |
| 20260905124044 | 58 | 102 | 3.0 | 6.0 | 0.00 | 0.00 | 0.00 | 83 | 1000.9 |
| 20260905123040 | 59 | 57 | 3.0 | 8.0 | 0.00 | 0.00 | 0.00 | 78 | 1000.9 |
| 20260905122035 | 60 | 70 | 3.0 | 10.0 | 0.00 | 0.00 | 0.00 | 74 | 1000.8 |
| 20260905121030 | 62 | 96 | 1.0 | 4.0 | 0.00 | 0.00 | 0.00 | 68 | 1000.6 |
| 20260905120105 | 62 | 142 | 0.0 | 2.0 | 0.00 | 0.00 | 0.00 | 68 | 1000.4 |
| 20260905115021 | 62 | 153 | 1.0 | 3.0 | 0.00 | 0.00 | 0.00 | 69 | 1000.2 |
| 20260905114016 | 62 | 131 | 1.0 | 3.0 | 0.00 | 0.00 | 0.00 | 70 | 1000.2 |
| 20260905113032 | 62 | 119 | 1.0 | 3.0 | 0.00 | 0.00 | 0.00 | 69 | 1000.2 |
| 20260905112027 | 61 | 143 | 1.0 | 3.0 | 0.00 | 0.00 | 0.00 | 69 | 1000.1 |
| 20260905111021 | 62 | 104 | 2.0 | 3.0 | 0.00 | 0.00 | 0.00 | 70 | 1000.1 |
| 20260905110037 | 61 | 147 | 1.0 | 4.0 | 0.00 | 0.00 | 0.00 | 68 | 999.9 |
| 20260905105032 | 61 | 129 | 1.0 | 3.0 | 0.00 | 0.00 | 0.00 | 66 | 999.9 |
| 20260905104048 | 61 | 91 | 2.0 | 6.0 | 0.00 | 0.00 | 0.00 | 64 | 999.8 |
| 20260905103023 | 61 | 142 | 2.0 | 7.0 | 0.00 | 0.00 | 0.00 | 61 | 999.7 |
| 20260905102019 | 62 | 88 | 2.0 | 4.0 | 0.00 | 0.00 | 0.00 | 62 | 999.6 |
| 20260905101035 | 62 | 175 | 1.0 | 3.0 | 0.00 | 0.00 | 0.00 | 65 | 999.6 |
| 20260905100029 | 61 | 39 | 1.0 | 6.0 | 0.00 | 0.00 | 0.00 | 65 | 999.4 |
| 20260905095024 | 60 | 147 | 1.0 | 2.0 | 0.00 | 0.00 | 0.00 | 72 | 999.4 |
| 20260905094020 | 60 | 121 | 1.0 | 4.0 | 0.00 | 0.00 | 0.00 | 75 | 999.3 |
| 20260905093016 | 59 | 0.0 | 0.0 | 0.00 | 0.00 | 0.00 | 79 | 999.1 | |
| 20260905092032 | 58 | 175 | 1.0 | 1.0 | 0.00 | 0.00 | 0.00 | 80 | 999.2 |
| 20260905091047 | 57 | 173 | 1.0 | 2.0 | 0.00 | 0.00 | 0.00 | 83 | 999.2 |
| 20260905090023 | 56 | 0.0 | 0.0 | 0.00 | 0.00 | 0.00 | 86 | 999.1 | |
| 20260905085019 | 55 | 0.0 | 0.0 | 0.00 | 0.00 | 0.00 | 87 | 999.0 | |
| 20260905084034 | 55 | 196 | 0.0 | 1.0 | 0.00 | 0.00 | 0.00 | 88 | 999.0 |
| 20260905083030 | 54 | 205 | 0.0 | 2.0 | 0.00 | 0.00 | 0.00 | 89 | 998.9 |
| 20260905082046 | 54 | 204 | 1.0 | 2.0 | 0.00 | 0.00 | 0.00 | 90 | 998.7 |
| 20260905081021 | 54 | 205 | 1.0 | 2.0 | 0.00 | 0.00 | 0.00 | 89 | 998.7 |
| 20260905080016 | 54 | 209 | 1.0 | 3.0 | 0.00 | 0.00 | 0.00 | 89 | 998.7 |
| 20260905075032 | 53 | 225 | 2.0 | 4.0 | 0.00 | 0.00 | 0.00 | 89 | 998.6 |
| 20260905074027 | 53 | 223 | 2.0 | 4.0 | 0.00 | 0.00 | 0.00 | 89 | 998.7 |
| 20260905073023 | 53 | 233 | 2.0 | 3.0 | 0.00 | 0.00 | 0.00 | 89 | 998.6 |
| 20260905072018 | 52 | 228 | 2.0 | 3.0 | 0.00 | 0.00 | 0.00 | 90 | 998.6 |
| 20260905071033 | 52 | 217 | 2.0 | 3.0 | 0.00 | 0.00 | 0.00 | 90 | 998.5 |
| 20260905070048 | 52 | 232 | 2.0 | 4.0 | 0.00 | 0.00 | 0.00 | 90 | 998.4 |
| 20260905065024 | 52 | 245 | 3.0 | 6.0 | 0.00 | 0.00 | 0.00 | 91 | 998.2 |
| 20260905064019 | 52 | 238 | 3.0 | 6.0 | 0.00 | 0.00 | 0.00 | 91 | 998.1 |
| 20260905063034 | 51 | 220 | 1.0 | 3.0 | 0.00 | 0.00 | 0.00 | 93 | 998.1 |
| 20260905062030 | 50 | 218 | 0.0 | 2.0 | 0.00 | 0.00 | 0.00 | 94 | 998.1 |
| 20260905061026 | 49 | 212 | 1.0 | 2.0 | 0.00 | 0.00 | 0.00 | 95 | 997.9 |
| 20260905060041 | 49 | 220 | 1.0 | 3.0 | 0.00 | 0.00 | 0.00 | 95 | 997.9 |
| 20260905055016 | 49 | 229 | 0.0 | 2.0 | 0.00 | 0.00 | 0.00 | 96 | 997.9 |
| 20260905054032 | 48 | 198 | 1.0 | 2.0 | 0.00 | 0.00 | 0.00 | 98 | 997.8 |
| 20260905053027 | 47 | 0.0 | 0.0 | 0.00 | 0.00 | 0.00 | 99 | 997.6 | |
| 20260905052042 | 46 | 0.0 | 0.0 | 0.00 | 0.00 | 0.00 | 99 | 997.7 | |
| 20260905051017 | 46 | 0.0 | 0.0 | 0.00 | 0.00 | 0.00 | 99 | 997.6 | |
| 20260905050054 | 45 | 0.0 | 0.0 | 0.00 | 0.00 | 0.00 | 99 | 997.6 | |
| 20260905045048 | 44 | 0.0 | 0.0 | 0.00 | 0.00 | 0.00 | 99 | 997.6 | |
| 20260905044023 | 44 | 204 | 0.0 | 1.0 | 0.00 | 0.00 | 0.00 | 99 | 997.6 |
| 20260905043038 | 44 | 0.0 | 0.0 | 0.00 | 0.00 | 0.00 | 99 | 997.6 | |
| 20260905042033 | 44 | 0.0 | 0.0 | 0.00 | 0.00 | 0.00 | 99 | 997.4 | |
| 20260905041029 | 43 | 0.0 | 0.0 | 0.00 | 0.00 | 0.00 | 99 | 997.6 | |
| 20260905040024 | 43 | 0.0 | 0.0 | 0.00 | 0.00 | 0.00 | 99 | 997.6 | |
| 20260905035039 | 44 | 0.0 | 0.0 | 0.00 | 0.00 | 0.00 | 99 | 997.5 | |
| 20260905034034 | 44 | 217 | 0.0 | 1.0 | 0.00 | 0.00 | 0.00 | 99 | 997.4 |
| 20260905033030 | 44 | 198 | 0.0 | 1.0 | 0.00 | 0.00 | 0.00 | 99 | 997.5 |
| 20260905032025 | 44 | 0.0 | 0.0 | 0.00 | 0.00 | 0.00 | 99 | 997.3 | |
| 20260905031021 | 44 | 0.0 | 0.0 | 0.00 | 0.00 | 0.00 | 99 | 997.2 | |
| 20260905030036 | 44 | 203 | 0.0 | 1.0 | 0.00 | 0.00 | 0.00 | 99 | 997.3 |
| 20260905025031 | 44 | 0.0 | 0.0 | 0.00 | 0.00 | 0.00 | 99 | 997.3 | |
| 20260905024026 | 45 | 197 | 0.0 | 1.0 | 0.00 | 0.00 | 0.00 | 99 | 997.2 |
| 20260905023022 | 45 | 198 | 0.0 | 1.0 | 0.00 | 0.00 | 0.00 | 99 | 997.2 |
| 20260905022017 | 45 | 227 | 1.0 | 3.0 | 0.00 | 0.00 | 0.00 | 99 | 997.2 |
| 20260905021032 | 45 | 0.0 | 0.0 | 0.00 | 0.00 | 0.00 | 99 | 997.0 | |
| 20260905020027 | 45 | 210 | 0.0 | 2.0 | 0.00 | 0.00 | 0.00 | 99 | 997.0 |
| 20260905015043 | 45 | 202 | 0.0 | 1.0 | 0.00 | 0.00 | 0.00 | 99 | 996.9 |
| 20260905014018 | 46 | 213 | 0.0 | 2.0 | 0.00 | 0.00 | 0.00 | 99 | 996.9 |
| 20260905013033 | 46 | 205 | 0.0 | 2.0 | 0.00 | 0.00 | 0.00 | 99 | 996.8 |
| 20260905012048 | 46 | 201 | 0.0 | 1.0 | 0.00 | 0.00 | 0.00 | 99 | 997.0 |
| 20260905011023 | 46 | 220 | 1.0 | 2.0 | 0.00 | 0.00 | 0.00 | 99 | 996.9 |
| 20260905010018 | 45 | 209 | 0.0 | 1.0 | 0.00 | 0.00 | 0.00 | 99 | 996.8 |
| 20260905005035 | 45 | 209 | 0.0 | 1.0 | 0.00 | 0.00 | 0.00 | 99 | 996.8 |
| 20260905004030 | 45 | 0.0 | 0.0 | 0.00 | 0.00 | 0.00 | 99 | 996.8 | |
| 20260905003025 | 45 | 0.0 | 0.0 | 0.00 | 0.00 | 0.00 | 99 | 996.7 | |
| 20260905002020 | 46 | 219 | 1.0 | 2.0 | 0.00 | 0.00 | 0.00 | 99 | 996.9 |
| 20260905001015 | 46 | 207 | 1.0 | 2.0 | 0.00 | 0.00 | 0.00 | 99 | 996.8 |
| 20260905000031 | 46 | 210 | 1.0 | 2.0 | 0.00 | 0.00 | 0.00 | 99 | 996.8 |
| 20260904235026 | 46 | 190 | 0.0 | 2.0 | 0.00 | 0.00 | 0.00 | 99 | 996.8 |
| 20260904234042 | 46 | 210 | 0.0 | 2.0 | 0.00 | 0.00 | 0.00 | 99 | 996.8 |
| 20260904233037 | 46 | 211 | 0.0 | 2.0 | 0.00 | 0.00 | 0.00 | 99 | 996.8 |
| 20260904232032 | 46 | 221 | 1.0 | 2.0 | 0.00 | 0.00 | 0.00 | 99 | 996.9 |
| 20260904231027 | 46 | 216 | 0.0 | 2.0 | 0.00 | 0.00 | 0.00 | 99 | 996.8 |
| 20260904230043 | 46 | 211 | 1.0 | 2.0 | 0.00 | 0.00 | 0.00 | 99 | 996.8 |
| 20260904225138 | 47 | 223 | 0.0 | 1.0 | 0.00 | 0.00 | 0.00 | 99 | 996.8 |
| 20260904224034 | 47 | 206 | 0.0 | 1.0 | 0.00 | 0.00 | 0.00 | 99 | 996.9 |
| 20260904223029 | 47 | 206 | 0.0 | 1.0 | 0.00 | 0.00 | 0.00 | 99 | 996.9 |
| 20260904222025 | 47 | 219 | 1.0 | 3.0 | 0.00 | 0.00 | 0.00 | 99 | 996.9 |
| 20260904221019 | 47 | 218 | 0.0 | 1.0 | 0.00 | 0.00 | 0.00 | 99 | 996.8 |
| 20260904220055 | 46 | 0.0 | 0.0 | 0.00 | 0.00 | 0.00 | 99 | 996.9 | |
| 20260904215030 | 46 | 0.0 | 0.0 | 0.00 | 0.00 | 0.00 | 99 | 997.0 | |
| 20260904214025 | 46 | 0.0 | 0.0 | 0.00 | 0.00 | 0.00 | 99 | 996.8 | |
| 20260904213021 | 47 | 0.0 | 0.0 | 0.00 | 0.00 | 0.00 | 99 | 997.0 | |
| 20260904212016 | 47 | 0.0 | 0.0 | 0.00 | 0.00 | 0.00 | 99 | 996.9 | |
| 20260904211033 | 47 | 0.0 | 0.0 | 0.00 | 0.00 | 0.00 | 98 | 996.9 | |
| 20260904210128 | 48 | 0.0 | 0.0 | 0.00 | 0.00 | 0.00 | 98 | 997.0 | |
| 20260904205022 | 48 | 0.0 | 0.0 | 0.00 | 0.00 | 0.00 | 98 | 996.9 | |
| 20260904204019 | 48 | 0.0 | 0.0 | 0.00 | 0.00 | 0.00 | 98 | 997.1 | |
| 20260904203054 | 48 | 0.0 | 0.0 | 0.00 | 0.00 | 0.00 | 97 | 997.1 | |
| 20260904202030 | 48 | 0.0 | 0.0 | 0.00 | 0.00 | 0.00 | 97 | 997.0 | |
| 20260904201025 | 49 | 0.0 | 0.0 | 0.00 | 0.00 | 0.00 | 97 | 997.1 | |
| 20260904200020 | 49 | 0.0 | 0.0 | 0.00 | 0.00 | 0.00 | 96 | 997.3 | |
| 20260904195016 | 49 | 0.0 | 0.0 | 0.00 | 0.00 | 0.00 | 96 | 997.3 | |
| 20260904194031 | 50 | 0.0 | 0.0 | 0.00 | 0.00 | 0.00 | 95 | 997.1 | |
| 20260904193046 | 51 | 0.0 | 0.0 | 0.00 | 0.00 | 0.00 | 95 | 997.2 | |
| 20260904192021 | 51 | 0.0 | 0.0 | 0.00 | 0.00 | 0.00 | 94 | 997.2 | |
| 20260904191035 | 51 | 196 | 0.0 | 1.0 | 0.00 | 0.00 | 0.00 | 94 | 997.2 |
| 20260904190030 | 51 | 0.0 | 0.0 | 0.00 | 0.00 | 0.00 | 93 | 997.2 | |
| 20260904185026 | 51 | 0.0 | 0.0 | 0.00 | 0.00 | 0.00 | 93 | 997.2 | |
| 20260904184021 | 52 | 0.0 | 0.0 | 0.00 | 0.00 | 0.00 | 92 | 997.3 | |
| 20260904183016 | 52 | 0.0 | 0.0 | 0.00 | 0.00 | 0.00 | 92 | 997.3 | |
| 20260904182032 | 51 | 0.0 | 0.0 | 0.00 | 0.00 | 0.00 | 92 | 997.4 | |
| 20260904181027 | 52 | 0.0 | 0.0 | 0.00 | 0.00 | 0.00 | 92 | 997.2 | |
| 20260904180022 | 52 | 0.0 | 0.0 | 0.00 | 0.00 | 0.00 | 90 | 997.3 | |
| 20260904175018 | 53 | 0.0 | 0.0 | 0.00 | 0.00 | 0.00 | 90 | 997.3 | |
| 20260904174032 | 53 | 0.0 | 0.0 | 0.00 | 0.00 | 0.00 | 89 | 997.3 | |
| 20260904173027 | 54 | 0.0 | 0.0 | 0.00 | 0.00 | 0.00 | 88 | 997.4 | |
| 20260904172022 | 54 | 0.0 | 0.0 | 0.00 | 0.00 | 0.00 | 87 | 997.4 | |
| 20260904171017 | 55 | 172 | 0.0 | 1.0 | 0.00 | 0.00 | 0.00 | 86 | 997.4 |
| 20260904170052 | 55 | 0.0 | 0.0 | 0.00 | 0.00 | 0.00 | 87 | 997.4 | |
| 20260904165028 | 56 | 179 | 0.0 | 1.0 | 0.00 | 0.00 | 0.00 | 84 | 997.4 |
| 20260904164043 | 56 | 114 | 2.0 | 4.0 | 0.00 | 0.00 | 0.00 | 82 | 997.5 |
| 20260904163018 | 56 | 129 | 2.0 | 4.0 | 0.00 | 0.00 | 0.00 | 82 | 997.4 |
| 20260904162033 | 57 | 134 | 2.0 | 3.0 | 0.00 | 0.00 | 0.00 | 81 | 997.4 |
| 20260904161029 | 57 | 138 | 1.0 | 3.0 | 0.00 | 0.00 | 0.00 | 80 | 997.4 |
| 20260904160025 | 57 | 117 | 2.0 | 4.0 | 0.00 | 0.00 | 0.00 | 79 | 997.5 |
| 20260904155020 | 58 | 121 | 1.0 | 4.0 | 0.00 | 0.00 | 0.00 | 78 | 997.5 |
| 20260904154035 | 58 | 106 | 3.0 | 6.0 | 0.00 | 0.00 | 0.00 | 78 | 997.5 |
| 20260904153031 | 59 | 113 | 2.0 | 6.0 | 0.00 | 0.00 | 0.00 | 77 | 997.5 |
| 20260904152106 | 59 | 118 | 2.0 | 4.0 | 0.00 | 0.00 | 0.00 | 77 | 997.6 |
| 20260904151022 | 59 | 138 | 1.0 | 6.0 | 0.00 | 0.00 | 0.00 | 77 | 997.6 |
| 20260904150016 | 59 | 111 | 2.0 | 7.0 | 0.00 | 0.00 | 0.00 | 76 | 997.7 |
| 20260904145032 | 59 | 112 | 2.0 | 4.0 | 0.00 | 0.00 | 0.00 | 75 | 997.6 |
| 20260904144028 | 60 | 102 | 4.0 | 8.0 | 0.00 | 0.00 | 0.00 | 75 | 997.6 |
| 20260904143103 | 61 | 88 | 2.0 | 6.0 | 0.00 | 0.00 | 0.00 | 74 | 997.8 |
| 20260904142038 | 61 | 129 | 1.0 | 3.0 | 0.00 | 0.00 | 0.00 | 74 | 997.7 |
| 20260904141034 | 61 | 153 | 1.0 | 3.0 | 0.00 | 0.00 | 0.00 | 73 | 997.7 |
| 20260904140049 | 62 | 126 | 2.0 | 4.0 | 0.00 | 0.00 | 0.00 | 70 | 997.8 |
| 20260904135045 | 63 | 160 | 1.0 | 3.0 | 0.00 | 0.00 | 0.00 | 69 | 997.9 |
| 20260904134040 | 61 | 128 | 1.0 | 3.0 | 0.00 | 0.00 | 0.00 | 71 | 997.9 |
| 20260904133020 | 60 | 155 | 1.0 | 2.0 | 0.00 | 0.00 | 0.00 | 74 | 997.9 |
| 20260904132031 | 60 | 124 | 1.0 | 4.0 | 0.00 | 0.00 | 0.00 | 73 | 998.1 |